Tracking 19562 objects as of 24-Mar-2019
HD Live streaming from Space Station
objects crossing your sky now

HIMAWARI 2 (GMS 2)

Track HIMAWARI 2 (GMS 2) now!
HIMAWARI 2 (GMS 2) is classified as:


NORAD ID: 12677
Int'l Code: 1981-076A
Perigee: 35,957.8 km
Apogee: 36,033.5 km
Inclination: 13.2 °
Period: 1,446.4 minutes
Semi major axis: 42366 km
RCS: 4.2567 m2 (large)
Launch date: August 10, 1981
Source: Japan (JPN)
Launch site: TANEGASHIMA SPACE CENTER (TNSTA)
aabbcc
Your satellite tracking list
Your tracking list is empty




NASA's NSSDC Master Catalog

Two Line Element Set (TLE):
1 12677U 81076A   19083.07202039 -.00000295  00000-0  00000+0 0  9995
2 12677  13.2272 328.6251 0008929 284.4859 280.3181  0.99555914105913
Source of the keplerian elements: AFSPC